Regional Weather Roundup
Issued by NWS

Home | Current Version | Previous Version | Graphics & Text | Print | Product List | Glossary On
Versions: 1 2 3 4 5 6 7 8 9 10 11 12 13 14 15 16 17 18 19 20 21 22 23 24 25 26 27 28 29 30 31 32 33 34 35 36 37 38 39 40 41 42 43 44 45 46 47 48 49 50
000
ASUS43 KMKX 281600
RWRWI

WISCONSIN REGIONAL WEATHER ROUNDUP
NATIONAL WEATHER SERVICE MILWAUKEE/SULLIVAN WI
1100 AM CDT FRI JUL 28 2017

NOTE: "FAIR" INDICATES FEW OR NO CLOUDS BELOW 12,000 FEET WITH NO
SIGNIFICANT WEATHER AND/OR OBSTRUCTIONS TO VISIBILITY.

WIZ001-002-006>008-014>016-023>028-281700-
NORTHWEST WISCONSIN

CITY           SKY/WX    TMP DP  RH WIND       PRES   REMARKS
SUPERIOR ARPT  NOT AVBL
ASHLAND        SUNNY     75  55  49 CALM      30.15S
HAYWARD        SUNNY     74  52  46 E6        30.15S
SIREN          SUNNY     76  56  50 E5        30.13F
CUMBERLAND     SUNNY     72  55  56 SE5       30.14S
RICE LAKE      SUNNY     74  55  50 E5        30.15S
CHETEK         SUNNY     73  58  57 MISG      30.13S
LADYSMITH      SUNNY     73  52  48 E5        30.16S
EAU CLAIRE     NOT AVBL
MENOMONIE      SUNNY     76  61  60 E6        30.11S
NEW RICHMOND   SUNNY     76  61  59 E5        30.12S
OSCEOLA        SUNNY     77  61  58 E5        30.14F
$$

WIZ003>005-009-010-017-018-281700-
NORTH CENTRAL WISCONSIN

CITY           SKY/WX    TMP DP  RH WIND       PRES   REMARKS
MANITOWISH WTR SUNNY     73  53  47 E6        30.16S
ARBOR VITAE    SUNNY     72  53  50 NE3       30.15S
WOODRUFF       SUNNY     72  53  50 NE3       30.15S
RHINELANDER    SUNNY     74  52  46 NE8       30.15S
EAGLE RIVER    SUNNY     73  49  42 E7        30.15S
LAND O LAKES   SUNNY     73  49  41 E6        30.17S
PHILLIPS       SUNNY     71  52  50 E3        30.15S
TOMAHAWK         N/A     71  54  53 CALM      30.15S
MEDFORD        SUNNY     70  54  55 NE8       30.14S
MERRILL        NOT AVBL
$$

WIZ029-030-035-036-043>047-281700-
CENTRAL WISCONSIN

CITY           SKY/WX    TMP DP  RH WIND       PRES   REMARKS
WAUSAU         MOSUNNY   74  57  55 NE8       30.11S
MOSINEE        MOSUNNY   72  55  56 N7G16     30.13S
MARSHFIELD     SUNNY     73  54  51 NE10      30.12S
STEVENS POINT  SUNNY     71  54  54 N7        30.11S
WAUPACA        SUNNY     73  57  57 NE9       30.10S
WAUTOMA        SUNNY     75  56  51 N12       30.09S
WISC RAPIDS    SUNNY     76  56  49 N12       30.12S
CAMP DOUGLAS   NOT AVBL
$$

WIZ011>013-019>022-031-037>040-048>050-281700-
NORTHEAST WISCONSIN

CITY           SKY/WX    TMP DP  RH WIND       PRES   REMARKS
ANTIGO         SUNNY     72  54  53 NE14G20   30.14R
SHAWANO        SUNNY     74  58  58 NE8       30.09S
OCONTO         SUNNY     71  59  66 NE8       30.08S
STURGEON BAY     N/A     71  62  73 NW12      30.09R
GREEN BAY      SUNNY     72  64  76 NE10      30.09R
MANITOWOC      NOT AVBL
APPLETON       MOSUNNY   70  55  60 NE7       30.07S
CLINTONVILLE   SUNNY    N/A N/A N/A NE7       30.09S
OSHKOSH        SUNNY     71  58  63 NE9       30.08R
$$

WIZ032>034-041-042-053>061-281700-
SOUTHWEST WISCONSIN

CITY           SKY/WX    TMP DP  RH WIND       PRES   REMARKS
LA CROSSE      SUNNY     77  62  59 E7        30.09S
SPARTA         SUNNY     74  56  53 NE6       30.10F
VIROQUA        SUNNY     72  62  70 NE9       30.10S
BOSCOBEL       SUNNY     77  60  55 N6        30.07S
PRAIRIE DU CHI SUNNY     74  59  60 NE7       30.06F
PLATTEVILLE    SUNNY     74  64  71 N9        30.07S
$$

WIZ056-057-062-063-064-067-068-281700-
SOUTH CENTRAL WISCONSIN

CITY           SKY/WX    TMP DP  RH WIND       PRES   REMARKS
REEDSBURG      SUNNY     72  55  55 NE9       30.08F
BARABOO/DELLS  SUNNY     72  54  53 NE8       30.09S
LONE ROCK      NOT AVBL
MINERAL POINT  SUNNY     73  61  64 NE9G16    30.07F
MADISON        MOSUNNY   73  57  57 NE12      30.06S
MIDDLETON      SUNNY     74  57  56 NE10G16   30.07S
WATERTOWN      SUNNY     71  59  66 N8        30.06S
MONROE         SUNNY     72  55  56 NE16      30.06S
JANESVILLE     MOSUNNY   75  57  53 N12G17    30.04S
$$

WIZ051-052-058>065-066-070>072-281700-
SOUTHEAST WISCONSIN

CITY           SKY/WX    TMP DP  RH WIND       PRES   REMARKS
MILWAUKEE      PTSUNNY   71  65  81 NE15      30.05S
WAUKESHA       CLOUDY    70  57  64 NE9       30.06S
MILWAUKEE/TIMM MOSUNNY   70  57  64 NE14      30.06S
RACINE         CLOUDY    70  65  84 N15G21    30.05S
KENOSHA        PTSUNNY   74  63  68 NE9G20    30.03S
FOND DU LAC    SUNNY     71  57  61 N10       30.08R
SHEBOYGAN      MOSUNNY   71  63  75 NE12      30.07R
WEST BEND      SUNNY     70  61  73 NE10      30.06S
JUNEAU         SUNNY     70  57  62 NE8       30.08S
$$

LSZ147-162-281700-
LAKE SUPERIOR

STATION/POSITION TIME  TEMP    WIND        PRES    WAVE
                       AIR SEA DIR/SP/G            HT/PER
                 (UTC) (F)     (DEG/KT/KT) (MB)    (FT/S)
W MID LAKE BUOY  1450   58 55  320/  2/  2 1020.8R   0
DEVILS ISLAND    1500   63     330/  3/  4 1020.9R
SAXON HARBOR     1530   69      40/  2/  3 1020.3S
$$

LMZ867-665-643>646-281700-
LAKE MICHIGAN

STATION/POSITION TIME  TEMP    WIND        PRES    WAVE
                       AIR SEA DIR/SP/G            HT/PER
                 (UTC) (F)     (DEG/KT/KT) (MB)    (FT/S)
CHAMBERS ISLAND  1540   68      10/ 13/ 15 1018.3R
S GREEN BAY BUOY 1530   67 71   40/ 12/ 16 1018.3R
N MID LAKE BUOY  1450   66 66   60/ 12/ 14 1018.7F   2/ 3
NORTHPORT PIER   1540   73      70/  9/ 12 1018.6R
KEWAUNEE LAKESHO 1530   70      30/  5/  9 1017.7R
SHEBOYGAN LAKESH 1500   65      10/ 16/ 19 1017.7R
PORT WASHINGTON  1530   70      50/ 10/ 13 1018.6R
MILWAUKEE LAKESH 1530   67      10/ 13/ 17   N/A
S MID LAKE BUOY  1450   69 71   30/ 12/ 14 1016.2R   2/ 5
KENOSHA   LAKESH 1500   68      20/ 17/ 18 1016.6
$$

TC  - TEMPERATURE IN CELSIUS
VSB - VISIBILITY IN STATUTE MILES
WCI - WIND CHILL INDEX
HX  - HEAT INDEX




USA.gov is the U.S. government's official web portal to all federal, state and local government web resources and services.